Time,TemperatureF,DewpointF,PressureIn,WindDirection,WindDirectionDegrees,WindSpeedMPH,WindSpeedGustMPH,Humidity,HourlyPrecipIn,Conditions,Clouds,dailyrainin,SolarRadiationWatts/m^2,SoftwareType,DateUTC
2013-01-14 00:02:00,55.8,49.6,29.93,ESE,111,0.0,2.0,43,0.04,,,0.05,0.0,meteohub,2013-01-14 05:02:00,
2013-01-14 00:07:00,55.8,49.6,29.93,ESE,110,1.0,2.0,43,0.05,,,0.01,0.0,meteohub,2013-01-14 05:07:00,
2013-01-14 00:12:00,55.9,49.6,29.93,ESE,110,0.0,2.0,43,0.05,,,0.01,0.0,meteohub,2013-01-14 05:12:00,
2013-01-14 00:17:00,56.1,49.6,29.93,ESE,109,0.0,2.0,43,0.05,,,0.01,0.0,meteohub,2013-01-14 05:17:00,
2013-01-14 00:22:00,55.8,49.6,29.94,SW,220,1.0,3.0,43,0.05,,,0.02,0.0,meteohub,2013-01-14 05:22:00,
2013-01-14 00:27:00,55.6,49.6,29.95,NNW,331,1.0,3.0,43,0.05,,,0.02,0.0,meteohub,2013-01-14 05:27:00,
2013-01-14 00:32:00,55.8,49.6,29.94,NE,43,1.0,4.0,43,0.05,,,0.03,0.0,meteohub,2013-01-14 05:32:00,
2013-01-14 00:37:00,56.1,49.6,29.94,ENE,59,2.0,4.0,43,0.06,,,0.04,0.0,meteohub,2013-01-14 05:37:00,
2013-01-14 00:42:00,56.3,49.6,29.94,ENE,59,1.0,4.0,43,0.06,,,0.04,0.0,meteohub,2013-01-14 05:42:00,
2013-01-14 00:47:00,56.1,49.6,29.95,WSW,253,0.0,3.0,43,0.07,,,0.05,0.0,meteohub,2013-01-14 05:47:00,
2013-01-14 00:52:00,55.9,49.6,29.95,SW,215,0.0,3.0,43,0.07,,,0.06,0.0,meteohub,2013-01-14 05:52:00,
2013-01-14 00:57:00,55.9,49.6,29.96,WNW,284,0.0,3.0,43,0.07,,,0.07,0.0,meteohub,2013-01-14 05:57:00,
2013-01-14 01:02:00,55.9,49.8,29.94,SSE,147,2.0,3.0,43,0.15,,,0.15,0.0,meteohub,2013-01-14 06:02:00,
2013-01-14 01:07:00,55.9,49.8,29.95,SSE,157,0.0,4.0,43,0.16,,,0.17,0.0,meteohub,2013-01-14 06:07:00,
2013-01-14 01:17:00,55.9,49.8,29.94,SSE,157,0.0,4.0,43,0.16,,,0.18,0.0,meteohub,2013-01-14 06:17:00,
2013-01-14 01:22:00,55.9,49.8,29.94,SSE,157,0.0,3.0,43,0.16,,,0.18,0.0,meteohub,2013-01-14 06:22:00,
2013-01-14 01:27:00,55.9,49.8,29.93,SSE,150,1.0,3.0,43,0.15,,,0.18,0.0,meteohub,2013-01-14 06:27:00,
2013-01-14 01:32:00,55.9,49.8,29.94,SE,141,2.0,3.0,43,0.15,,,0.18,0.0,meteohub,2013-01-14 06:32:00,
2013-01-14 01:37:00,55.9,49.8,29.94,SE,129,0.0,4.0,43,0.15,,,0.19,0.0,meteohub,2013-01-14 06:37:00,
2013-01-14 01:42:00,55.9,49.8,29.94,SE,129,0.0,4.0,43,0.15,,,0.19,0.0,meteohub,2013-01-14 06:42:00,
2013-01-14 01:47:00,55.9,49.8,29.94,SE,125,2.0,4.0,43,0.14,,,0.19,0.0,meteohub,2013-01-14 06:47:00,
2013-01-14 01:52:00,55.9,49.8,29.93,ESE,123,0.0,3.0,43,0.13,,,0.19,0.0,meteohub,2013-01-14 06:52:00,
2013-01-14 01:57:00,55.9,49.8,29.93,ESE,107,0.0,2.0,43,0.12,,,0.20,0.0,meteohub,2013-01-14 06:57:00,
2013-01-14 02:07:00,55.8,49.1,29.94,ESE,107,0.0,1.0,42,0.03,,,0.20,0.0,meteohub,2013-01-14 07:07:00,
2013-01-14 02:12:00,55.9,49.6,29.93,SE,134,1.0,1.0,43,0.03,,,0.20,0.0,meteohub,2013-01-14 07:12:00,
2013-01-14 02:17:00,55.9,49.6,29.92,ESE,115,2.0,2.0,43,0.02,,,0.20,0.0,meteohub,2013-01-14 07:17:00,
2013-01-14 02:22:00,56.1,49.6,29.93,SE,128,1.0,4.0,43,0.02,,,0.20,0.0,meteohub,2013-01-14 07:22:00,
2013-01-14 02:32:00,56.3,49.6,29.94,ENE,71,0.0,4.0,43,0.02,,,0.20,0.0,meteohub,2013-01-14 07:32:00,
2013-01-14 02:37:00,56.3,49.6,29.93,ENE,71,2.0,4.0,43,0.01,,,0.20,0.0,meteohub,2013-01-14 07:37:00,
2013-01-14 02:42:00,56.1,49.6,29.94,ENE,70,1.0,3.0,43,0.01,,,0.20,0.0,meteohub,2013-01-14 07:42:00,
2013-01-14 02:47:00,56.1,49.6,29.93,NNE,28,0.0,3.0,43,0.01,,,0.20,0.0,meteohub,2013-01-14 07:47:00,
2013-01-14 02:52:00,55.9,49.6,29.92,SE,140,0.0,3.0,43,0.01,,,0.20,0.0,meteohub,2013-01-14 07:52:00,
2013-01-14 02:57:00,55.8,49.6,29.93,SE,139,0.0,3.0,43,0.00,,,0.20,0.0,meteohub,2013-01-14 07:57:00,
2013-01-14 03:02:00,55.9,49.6,29.93,SE,140,0.0,3.0,43,0.00,,,0.20,0.0,meteohub,2013-01-14 08:02:00,
2013-01-14 03:07:00,55.8,49.6,29.93,SE,139,0.0,2.0,43,0.00,,,0.20,0.0,meteohub,2013-01-14 08:07:00,
2013-01-14 03:12:00,55.6,49.6,29.93,SE,140,0.0,1.0,43,0.00,,,0.20,0.0,meteohub,2013-01-14 08:12:00,
2013-01-14 03:17:00,55.6,49.6,29.92,SE,140,0.0,1.0,43,0.00,,,0.20,0.0,meteohub,2013-01-14 08:17:00,
2013-01-14 03:22:00,55.6,49.6,29.91,ESE,123,0.0,1.0,43,0.00,,,0.20,0.0,meteohub,2013-01-14 08:22:00,
2013-01-14 03:27:00,55.6,49.6,29.92,ESE,123,0.0,3.0,43,0.00,,,0.20,0.0,meteohub,2013-01-14 08:27:00,
2013-01-14 03:32:00,55.4,49.6,29.91,ESE,123,0.0,3.0,43,0.00,,,0.20,0.0,meteohub,2013-01-14 08:32:00,
2013-01-14 03:37:00,55.2,49.8,29.91,ESE,123,0.0,3.0,43,0.00,,,0.20,0.0,meteohub,2013-01-14 08:37:00,
2013-01-14 03:47:00,55.2,49.8,29.91,ESE,123,0.0,0.0,43,0.00,,,0.20,0.0,meteohub,2013-01-14 08:47:00,
2013-01-14 03:52:00,55.2,49.8,29.91,ESE,123,0.0,0.0,43,0.00,,,0.20,0.0,meteohub,2013-01-14 08:52:00,
2013-01-14 04:02:00,55.6,49.8,29.91,ESE,123,0.0,0.0,43,0.00,,,0.20,0.0,meteohub,2013-01-14 09:02:00,
2013-01-14 04:07:00,55.8,49.8,29.91,ESE,123,0.0,0.0,43,0.00,,,0.20,0.0,meteohub,2013-01-14 09:07:00,
2013-01-14 04:12:00,55.9,49.8,29.91,ESE,123,0.0,1.0,43,0.00,,,0.20,0.0,meteohub,2013-01-14 09:12:00,
2013-01-14 04:17:00,56.1,49.8,29.91,ESE,123,0.0,1.0,43,0.00,,,0.20,0.0,meteohub,2013-01-14 09:17:00,
2013-01-14 04:22:00,55.9,49.1,29.91,ESE,123,0.0,2.0,42,0.00,,,0.20,0.0,meteohub,2013-01-14 09:22:00,
2013-01-14 04:27:00,55.8,49.6,29.91,ESE,123,0.0,2.0,43,0.00,,,0.20,0.0,meteohub,2013-01-14 09:27:00,
2013-01-14 04:32:00,55.8,49.6,29.90,ESE,123,0.0,1.0,43,0.00,,,0.20,0.0,meteohub,2013-01-14 09:32:00,
2013-01-14 04:42:00,55.8,49.6,29.90,ESE,123,0.0,0.0,43,0.00,,,0.20,0.0,meteohub,2013-01-14 09:42:00,
2013-01-14 04:47:00,55.6,49.6,29.90,ESE,123,0.0,1.0,43,0.00,,,0.20,0.0,meteohub,2013-01-14 09:47:00,
2013-01-14 04:52:00,55.6,49.6,29.90,ESE,123,0.0,1.0,43,0.00,,,0.20,0.0,meteohub,2013-01-14 09:52:00,
2013-01-14 05:02:00,55.8,49.6,29.90,ESE,123,0.0,0.0,43,0.00,,,0.20,0.0,meteohub,2013-01-14 10:02:00,
2013-01-14 05:07:00,55.6,49.6,29.90,ESE,123,0.0,0.0,43,0.00,,,0.20,0.0,meteohub,2013-01-14 10:07:00,
2013-01-14 05:17:00,55.2,49.6,29.89,ESE,119,1.0,2.0,43,0.00,,,0.20,0.0,meteohub,2013-01-14 10:17:00,
2013-01-14 05:22:00,55.6,49.6,29.89,ESE,103,1.0,2.0,43,0.00,,,0.20,0.0,meteohub,2013-01-14 10:22:00,
2013-01-14 05:27:00,55.8,49.6,29.89,ESE,103,0.0,3.0,43,0.00,,,0.20,0.0,meteohub,2013-01-14 10:27:00,
2013-01-14 05:32:00,55.8,49.6,29.90,ESE,103,0.0,3.0,43,0.00,,,0.20,0.0,meteohub,2013-01-14 10:32:00,
2013-01-14 05:42:00,55.2,49.6,29.90,ESE,103,0.0,0.0,43,0.00,,,0.20,0.0,meteohub,2013-01-14 10:42:00,
2013-01-14 05:47:00,55.4,49.6,29.90,ESE,103,1.0,0.0,43,0.00,,,0.20,0.0,meteohub,2013-01-14 10:47:00,
2013-01-14 05:57:00,55.8,49.6,29.90,ESE,111,0.0,1.0,43,0.00,,,0.20,0.0,meteohub,2013-01-14 10:57:00,
2013-01-14 06:02:00,55.9,49.6,29.90,ESE,111,0.0,2.0,43,0.00,,,0.20,0.0,meteohub,2013-01-14 11:02:00,
2013-01-14 06:07:00,56.1,50.4,29.91,ESE,111,0.0,2.0,44,0.00,,,0.20,0.0,meteohub,2013-01-14 11:07:00,
2013-01-14 06:12:00,56.1,50.9,29.90,ESE,111,0.0,2.0,45,0.00,,,0.20,0.0,meteohub,2013-01-14 11:12:00,
2013-01-14 06:17:00,56.1,52.7,29.90,ENE,75,0.0,2.0,48,0.00,,,0.20,0.0,meteohub,2013-01-14 11:17:00,
2013-01-14 06:22:00,56.1,51.4,29.91,ENE,75,0.0,2.0,46,0.00,,,0.20,0.0,meteohub,2013-01-14 11:22:00,
2013-01-14 06:27:00,56.1,51.4,29.91,ENE,75,0.0,2.0,46,0.00,,,0.20,0.0,meteohub,2013-01-14 11:27:00,
2013-01-14 06:32:00,55.9,51.6,29.91,ENE,75,0.0,1.0,46,0.00,,,0.20,0.0,meteohub,2013-01-14 11:32:00,
2013-01-14 06:37:00,55.8,51.6,29.91,ESE,107,0.0,1.0,46,0.00,,,0.20,0.0,meteohub,2013-01-14 11:37:00,
2013-01-14 06:42:00,55.8,51.1,29.92,ESE,107,0.0,1.0,45,0.00,,,0.20,0.0,meteohub,2013-01-14 11:42:00,
2013-01-14 06:47:00,55.8,51.1,29.92,ESE,107,0.0,1.0,45,0.00,,,0.20,0.0,meteohub,2013-01-14 11:47:00,
2013-01-14 06:52:00,55.6,51.4,29.92,ESE,107,0.0,1.0,46,0.00,,,0.20,0.0,meteohub,2013-01-14 11:52:00,
2013-01-14 06:57:00,55.8,51.4,29.92,ESE,109,0.0,1.0,46,0.00,,,0.20,0.0,meteohub,2013-01-14 11:57:00,
2013-01-14 07:02:00,55.6,51.4,29.91,ESE,109,1.0,2.0,46,0.00,,,0.20,0.0,meteohub,2013-01-14 12:02:00,
2013-01-14 07:07:00,55.6,51.4,29.92,ESE,109,0.0,3.0,46,0.00,,,0.20,0.0,meteohub,2013-01-14 12:07:00,
2013-01-14 07:12:00,55.6,51.4,29.92,ESE,109,0.0,3.0,46,0.00,,,0.20,0.0,meteohub,2013-01-14 12:12:00,
2013-01-14 07:17:00,55.6,51.4,29.92,ESE,109,0.0,3.0,46,0.00,,,0.20,0.0,meteohub,2013-01-14 12:17:00,
2013-01-14 07:22:00,55.2,50.9,29.93,ESE,109,0.0,2.0,45,0.00,,,0.20,0.0,meteohub,2013-01-14 12:22:00,
2013-01-14 07:27:00,55.2,50.9,29.94,ESE,109,0.0,1.0,45,0.00,,,0.20,0.0,meteohub,2013-01-14 12:27:00,
2013-01-14 07:32:00,55.2,51.4,29.94,ESE,123,0.0,0.0,46,0.00,,,0.20,0.0,meteohub,2013-01-14 12:32:00,
2013-01-14 07:37:00,55.2,51.4,29.94,SE,130,0.0,1.0,46,0.00,,,0.20,0.0,meteohub,2013-01-14 12:37:00,
2013-01-14 07:42:00,55.2,52.2,29.95,SE,129,0.0,1.0,47,0.00,,,0.20,0.0,meteohub,2013-01-14 12:42:00,
2013-01-14 07:47:00,55.0,52.2,29.94,ESE,109,2.0,2.0,47,0.01,,,0.21,0.0,meteohub,2013-01-14 12:47:00,
2013-01-14 07:52:00,55.8,52.2,29.94,NE,51,1.0,3.0,47,0.01,,,0.21,0.0,meteohub,2013-01-14 12:52:00,
2013-01-14 07:57:00,55.8,52.9,29.94,NE,51,0.0,3.0,48,0.02,,,0.22,0.0,meteohub,2013-01-14 12:57:00,
2013-01-14 08:02:00,55.8,52.9,29.94,NE,51,0.0,3.0,48,0.02,,,0.22,5.0,meteohub,2013-01-14 13:02:00,
2013-01-14 08:12:00,55.9,52.5,29.95,NE,54,0.0,3.0,47,0.02,,,0.22,0.0,meteohub,2013-01-14 13:12:00,
2013-01-14 08:17:00,55.8,52.9,29.96,NE,54,1.0,3.0,48,0.02,,,0.22,5.0,meteohub,2013-01-14 13:17:00,
2013-01-14 08:22:00,55.6,52.9,29.96,NE,54,0.0,3.0,48,0.02,,,0.22,0.0,meteohub,2013-01-14 13:22:00,
2013-01-14 08:32:00,55.4,53.2,29.96,NE,54,0.0,2.0,48,0.02,,,0.22,0.0,meteohub,2013-01-14 13:32:00,
2013-01-14 08:37:00,55.6,52.5,29.96,ENE,67,0.0,1.0,47,0.02,,,0.22,9.0,meteohub,2013-01-14 13:37:00,
2013-01-14 08:42:00,55.8,52.0,29.96,ENE,68,0.0,1.0,46,0.01,,,0.22,11.0,meteohub,2013-01-14 13:42:00,
2013-01-14 08:47:00,55.9,53.1,29.96,ENE,68,0.0,1.0,48,0.02,,,0.23,14.0,meteohub,2013-01-14 13:47:00,
2013-01-14 08:52:00,55.9,53.1,29.96,ENE,68,0.0,1.0,48,0.02,,,0.23,26.0,meteohub,2013-01-14 13:52:00,
2013-01-14 08:57:00,55.9,53.2,29.97,ENE,68,0.0,1.0,48,0.02,,,0.24,21.0,meteohub,2013-01-14 13:57:00,
2013-01-14 09:07:00,56.1,53.4,29.97,ENE,61,0.0,3.0,48,0.03,,,0.25,18.0,meteohub,2013-01-14 14:07:00,
2013-01-14 09:12:00,56.3,52.2,29.97,ENE,61,0.0,3.0,46,0.03,,,0.25,16.0,meteohub,2013-01-14 14:12:00,
2013-01-14 09:17:00,56.5,52.7,29.97,ENE,61,0.0,2.0,47,0.03,,,0.25,14.0,meteohub,2013-01-14 14:17:00,
2013-01-14 09:22:00,56.3,53.4,29.97,ENE,66,0.0,2.0,48,0.03,,,0.25,12.0,meteohub,2013-01-14 14:22:00,
2013-01-14 09:27:00,56.3,53.4,29.97,SE,130,0.0,2.0,48,0.04,,,0.26,14.0,meteohub,2013-01-14 14:27:00,
2013-01-14 09:32:00,56.3,53.4,29.97,SE,130,1.0,2.0,48,0.08,,,0.30,12.0,meteohub,2013-01-14 14:32:00,
2013-01-14 09:42:00,56.1,52.9,29.98,SE,130,0.0,2.0,47,0.10,,,0.33,18.0,meteohub,2013-01-14 14:42:00,
2013-01-14 09:47:00,56.1,53.4,29.98,SE,126,0.0,2.0,48,0.11,,,0.34,16.0,meteohub,2013-01-14 14:47:00,
2013-01-14 09:52:00,56.1,53.4,29.98,ENE,66,0.0,2.0,48,0.12,,,0.35,11.0,meteohub,2013-01-14 14:52:00,
2013-01-14 09:57:00,55.9,53.4,29.98,NE,40,1.0,2.0,48,0.12,,,0.37,14.0,meteohub,2013-01-14 14:57:00,
2013-01-14 10:02:00,55.9,53.4,29.98,ESE,105,1.0,2.0,48,0.13,,,0.38,26.0,meteohub,2013-01-14 15:02:00,
2013-01-14 10:07:00,55.8,53.6,29.98,ESE,103,0.0,3.0,48,0.15,,,0.40,35.0,meteohub,2013-01-14 15:07:00,
2013-01-14 10:12:00,55.8,52.5,29.98,NE,51,0.0,3.0,46,0.16,,,0.41,19.0,meteohub,2013-01-14 15:12:00,
2013-01-14 10:22:00,55.8,53.4,29.97,NE,55,0.0,2.0,48,0.18,,,0.43,14.0,meteohub,2013-01-14 15:22:00,
2013-01-14 10:27:00,55.6,53.4,29.98,ESE,115,0.0,2.0,48,0.16,,,0.43,23.0,meteohub,2013-01-14 15:27:00,
2013-01-14 10:32:00,55.2,53.4,29.98,ESE,110,2.0,8.0,48,0.14,,,0.44,21.0,meteohub,2013-01-14 15:32:00,
2013-01-14 10:37:00,54.9,53.6,29.98,NW,305,2.0,8.0,48,0.16,,,0.47,14.0,meteohub,2013-01-14 15:37:00,
2013-01-14 10:42:00,55.0,53.1,29.99,WSW,248,0.0,8.0,47,0.14,,,0.48,19.0,meteohub,2013-01-14 15:42:00,
2013-01-14 10:47:00,55.0,53.1,29.99,WSW,248,1.0,4.0,47,0.15,,,0.50,21.0,meteohub,2013-01-14 15:47:00,
2013-01-14 10:52:00,54.9,53.6,29.98,WSW,248,0.0,4.0,48,0.16,,,0.52,28.0,meteohub,2013-01-14 15:52:00,
2013-01-14 10:57:00,55.0,53.6,29.98,WSW,248,0.0,2.0,48,0.17,,,0.54,19.0,meteohub,2013-01-14 15:57:00,
2013-01-14 11:02:00,54.9,53.6,29.98,NW,311,2.0,2.0,48,0.18,,,0.57,26.0,meteohub,2013-01-14 16:02:00,
2013-01-14 11:07:00,54.3,53.6,29.98,WNW,300,3.0,3.0,48,0.20,,,0.60,28.0,meteohub,2013-01-14 16:07:00,
2013-01-14 11:12:00,54.0,53.2,29.97,NW,325,0.0,4.0,47,0.20,,,0.61,26.0,meteohub,2013-01-14 16:12:00,
2013-01-14 11:17:00,53.8,52.5,29.97,NW,325,1.0,4.0,46,0.20,,,0.62,28.0,meteohub,2013-01-14 16:17:00,
2013-01-14 11:22:00,53.8,52.9,29.97,NW,325,0.0,4.0,47,0.20,,,0.63,35.0,meteohub,2013-01-14 16:22:00,
2013-01-14 11:27:00,53.6,53.4,29.97,ESE,120,2.0,2.0,48,0.20,,,0.64,26.0,meteohub,2013-01-14 16:27:00,
2013-01-14 11:32:00,53.6,53.4,29.96,ENE,71,4.0,4.0,48,0.22,,,0.67,44.0,meteohub,2013-01-14 16:32:00,
2013-01-14 11:37:00,53.8,53.6,29.96,ESE,102,0.0,4.0,48,0.21,,,0.68,37.0,meteohub,2013-01-14 16:37:00,
2013-01-14 11:47:00,53.4,52.7,29.96,SW,216,1.0,4.0,46,0.22,,,0.73,49.0,meteohub,2013-01-14 16:47:00,
2013-01-14 11:52:00,53.1,53.1,29.96,WSW,249,2.0,3.0,47,0.22,,,0.75,35.0,meteohub,2013-01-14 16:52:00,
2013-01-14 11:57:00,52.5,53.6,29.95,WNW,292,2.0,4.0,48,0.21,,,0.77,56.0,meteohub,2013-01-14 16:57:00,
2013-01-14 12:02:00,52.0,53.6,29.95,West,267,1.0,4.0,48,0.21,,,0.78,62.0,meteohub,2013-01-14 17:02:00,
2013-01-14 12:07:00,51.6,53.2,29.94,West,267,2.0,4.0,47,0.20,,,0.80,63.0,meteohub,2013-01-14 17:07:00,
2013-01-14 12:12:00,51.6,53.2,29.94,West,269,0.0,4.0,47,0.20,,,0.82,93.0,meteohub,2013-01-14 17:12:00,
2013-01-14 12:17:00,51.8,52.7,29.94,West,269,0.0,3.0,46,0.19,,,0.82,53.0,meteohub,2013-01-14 17:17:00,
2013-01-14 12:22:00,51.6,53.1,29.94,West,269,1.0,2.0,47,0.19,,,0.83,40.0,meteohub,2013-01-14 17:22:00,
2013-01-14 12:27:00,51.4,53.6,29.94,West,269,1.0,2.0,48,0.19,,,0.84,44.0,meteohub,2013-01-14 17:27:00,
2013-01-14 12:32:00,51.4,53.6,29.94,West,269,0.0,2.0,48,0.18,,,0.85,28.0,meteohub,2013-01-14 17:32:00,
2013-01-14 12:37:00,51.6,53.1,29.94,West,269,1.0,2.0,47,0.18,,,0.87,32.0,meteohub,2013-01-14 17:37:00,
2013-01-14 12:42:00,51.3,52.7,29.94,WNW,292,1.0,4.0,46,0.18,,,0.89,23.0,meteohub,2013-01-14 17:42:00,
2013-01-14 12:47:00,50.7,53.1,29.95,WNW,303,1.0,5.0,47,0.17,,,0.90,21.0,meteohub,2013-01-14 17:47:00,
2013-01-14 12:52:00,50.4,53.1,29.95,NW,318,2.0,6.0,47,0.19,,,0.94,26.0,meteohub,2013-01-14 17:52:00,
2013-01-14 12:57:00,50.0,53.1,29.95,WSW,241,0.0,6.0,47,0.21,,,0.98,28.0,meteohub,2013-01-14 17:57:00,
2013-01-14 13:02:00,49.8,53.2,29.94,WSW,241,0.0,6.0,47,0.22,,,1.01,42.0,meteohub,2013-01-14 18:02:00,
2013-01-14 13:07:00,50.0,53.2,29.93,WSW,241,0.0,3.0,47,0.22,,,1.03,40.0,meteohub,2013-01-14 18:07:00,
2013-01-14 13:12:00,50.4,52.7,29.94,WSW,256,0.0,3.0,46,0.23,,,1.05,25.0,meteohub,2013-01-14 18:12:00,
2013-01-14 13:17:00,50.4,53.2,29.95,WNW,296,6.0,6.0,47,0.23,,,1.05,16.0,meteohub,2013-01-14 18:17:00,
2013-01-14 13:22:00,49.8,53.2,29.94,WNW,302,2.0,7.0,47,0.24,,,1.07,44.0,meteohub,2013-01-14 18:22:00,
2013-01-14 13:27:00,49.6,53.2,29.95,WNW,299,1.0,7.0,47,0.26,,,1.09,33.0,meteohub,2013-01-14 18:27:00,
2013-01-14 13:32:00,49.5,53.2,29.94,NNW,336,1.0,7.0,47,0.26,,,1.12,39.0,meteohub,2013-01-14 18:32:00,
2013-01-14 13:42:00,49.6,52.2,29.95,NW,309,0.0,6.0,45,0.26,,,1.15,33.0,meteohub,2013-01-14 18:42:00,
2013-01-14 13:47:00,49.6,52.7,29.95,NW,316,2.0,3.0,46,0.25,,,1.17,44.0,meteohub,2013-01-14 18:47:00,
2013-01-14 13:52:00,49.6,52.7,29.94,NW,315,2.0,4.0,46,0.26,,,1.21,39.0,meteohub,2013-01-14 18:52:00,
2013-01-14 13:57:00,49.6,52.9,29.94,NW,307,2.0,4.0,46,0.23,,,1.22,39.0,meteohub,2013-01-14 18:57:00,
2013-01-14 14:02:00,49.6,52.9,29.94,NNW,347,2.0,4.0,46,0.22,,,1.24,37.0,meteohub,2013-01-14 19:02:00,
2013-01-14 14:12:00,49.6,52.3,29.94,NW,317,2.0,4.0,45,0.23,,,1.28,39.0,meteohub,2013-01-14 19:12:00,
2013-01-14 14:17:00,49.8,52.9,29.94,NE,46,0.0,4.0,46,0.26,,,1.32,74.0,meteohub,2013-01-14 19:17:00,
2013-01-14 14:22:00,50.4,52.9,29.94,WNW,283,2.0,4.0,46,0.27,,,1.35,40.0,meteohub,2013-01-14 19:22:00,
2013-01-14 14:27:00,50.4,52.9,29.95,WNW,283,0.0,3.0,46,0.26,,,1.36,47.0,meteohub,2013-01-14 19:27:00,
2013-01-14 14:32:00,50.4,52.9,29.94,NNW,327,0.0,3.0,46,0.25,,,1.38,60.0,meteohub,2013-01-14 19:32:00,
2013-01-14 14:37:00,50.4,53.1,29.94,WNW,282,0.0,3.0,46,0.24,,,1.39,44.0,meteohub,2013-01-14 19:37:00,
2013-01-14 14:47:00,50.4,52.3,29.95,West,260,0.0,4.0,45,0.21,,,1.39,47.0,meteohub,2013-01-14 19:47:00,
2013-01-14 14:52:00,50.4,53.4,29.94,West,261,0.0,4.0,47,0.18,,,1.40,54.0,meteohub,2013-01-14 19:52:00,
2013-01-14 14:57:00,50.5,53.4,29.95,West,260,1.0,4.0,47,0.17,,,1.41,37.0,meteohub,2013-01-14 19:57:00,
2013-01-14 15:02:00,50.5,53.6,29.95,West,263,2.0,2.0,47,0.16,,,1.41,40.0,meteohub,2013-01-14 20:02:00,
2013-01-14 15:07:00,50.4,53.1,29.95,WNW,299,0.0,2.0,46,0.15,,,1.42,30.0,meteohub,2013-01-14 20:07:00,
2013-01-14 15:17:00,50.4,52.9,29.96,NW,306,0.0,3.0,46,0.12,,,1.45,28.0,meteohub,2013-01-14 20:17:00,
2013-01-14 15:22:00,50.5,53.2,29.95,NE,44,2.0,3.0,47,0.11,,,1.46,30.0,meteohub,2013-01-14 20:22:00,
2013-01-14 15:27:00,50.5,53.2,29.96,SW,217,1.0,3.0,47,0.11,,,1.48,19.0,meteohub,2013-01-14 20:27:00,
2013-01-14 15:37:00,50.5,54.0,29.96,SW,217,0.0,3.0,48,0.11,,,1.50,53.0,meteohub,2013-01-14 20:37:00,
2013-01-14 15:42:00,50.7,54.1,29.96,SW,217,0.0,3.0,48,0.13,,,1.52,37.0,meteohub,2013-01-14 20:42:00,
2013-01-14 15:47:00,51.1,53.8,29.96,SW,217,0.0,0.0,47,0.12,,,1.52,25.0,meteohub,2013-01-14 20:47:00,
2013-01-14 15:52:00,50.9,53.8,29.96,SW,217,0.0,2.0,47,0.12,,,1.53,26.0,meteohub,2013-01-14 20:52:00,
2013-01-14 15:57:00,50.9,54.5,29.97,WSW,248,1.0,2.0,48,0.13,,,1.53,18.0,meteohub,2013-01-14 20:57:00,
2013-01-14 16:02:00,50.7,54.5,29.97,WSW,245,3.0,3.0,48,0.12,,,1.54,16.0,meteohub,2013-01-14 21:02:00,
2013-01-14 16:07:00,50.7,54.0,29.97,WSW,245,0.0,3.0,47,0.11,,,1.54,12.0,meteohub,2013-01-14 21:07:00,
2013-01-14 16:12:00,50.7,54.0,29.97,NW,322,0.0,3.0,47,0.10,,,1.54,14.0,meteohub,2013-01-14 21:12:00,
2013-01-14 16:17:00,50.7,53.8,29.98,NW,322,1.0,3.0,47,0.09,,,1.54,14.0,meteohub,2013-01-14 21:17:00,
2013-01-14 16:22:00,50.9,52.5,29.98,NW,322,0.0,2.0,45,0.09,,,1.56,12.0,meteohub,2013-01-14 21:22:00,
2013-01-14 16:27:00,50.9,53.1,29.97,NE,48,1.0,2.0,46,0.08,,,1.56,25.0,meteohub,2013-01-14 21:27:00,
2013-01-14 16:32:00,51.1,53.6,29.98,NNW,329,1.0,2.0,47,0.07,,,1.57,16.0,meteohub,2013-01-14 21:32:00,
2013-01-14 16:37:00,51.1,53.6,29.97,NNW,329,0.0,2.0,47,0.07,,,1.58,21.0,meteohub,2013-01-14 21:37:00,
2013-01-14 16:42:00,51.3,53.1,29.98,West,265,0.0,2.0,46,0.06,,,1.58,16.0,meteohub,2013-01-14 21:42:00,
2013-01-14 16:47:00,51.3,53.1,29.98,West,265,0.0,3.0,46,0.05,,,1.58,18.0,meteohub,2013-01-14 21:47:00,
2013-01-14 16:52:00,51.3,52.3,29.98,West,265,0.0,3.0,45,0.06,,,1.59,12.0,meteohub,2013-01-14 21:52:00,
2013-01-14 16:57:00,51.3,52.9,29.98,West,265,0.0,1.0,46,0.06,,,1.60,7.0,meteohub,2013-01-14 21:57:00,
2013-01-14 17:02:00,51.3,52.9,29.98,West,265,0.0,1.0,46,0.06,,,1.60,5.0,meteohub,2013-01-14 22:02:00,
2013-01-14 17:07:00,51.3,52.9,29.98,East,96,0.0,1.0,46,0.06,,,1.60,0.0,meteohub,2013-01-14 22:07:00,
2013-01-14 17:12:00,51.4,52.9,29.98,East,96,0.0,2.0,46,0.07,,,1.61,0.0,meteohub,2013-01-14 22:12:00,
2013-01-14 17:17:00,51.4,52.9,29.98,SSE,159,0.0,2.0,46,0.06,,,1.61,0.0,meteohub,2013-01-14 22:17:00,
2013-01-14 17:22:00,51.4,53.1,29.98,SSE,159,0.0,2.0,46,0.05,,,1.61,0.0,meteohub,2013-01-14 22:22:00,
2013-01-14 17:27:00,51.6,52.2,29.98,SSE,158,0.0,2.0,45,0.04,,,1.61,0.0,meteohub,2013-01-14 22:27:00,
2013-01-14 17:32:00,51.6,52.9,29.98,ESE,117,0.0,2.0,46,0.04,,,1.61,0.0,meteohub,2013-01-14 22:32:00,
2013-01-14 17:37:00,51.8,52.9,29.99,West,260,0.0,3.0,46,0.04,,,1.62,0.0,meteohub,2013-01-14 22:37:00,
2013-01-14 17:42:00,51.6,52.9,29.99,West,260,0.0,3.0,46,0.04,,,1.62,0.0,meteohub,2013-01-14 22:42:00,
2013-01-14 17:47:00,51.4,52.9,29.99,WNW,292,0.0,3.0,46,0.04,,,1.62,0.0,meteohub,2013-01-14 22:47:00,
2013-01-14 17:52:00,51.6,52.9,29.99,WNW,292,0.0,3.0,46,0.04,,,1.63,0.0,meteohub,2013-01-14 22:52:00,
2013-01-14 17:57:00,52.0,51.8,29.99,SSW,210,1.0,3.0,44,0.04,,,1.64,0.0,meteohub,2013-01-14 22:57:00,
2013-01-14 18:02:00,51.6,52.2,29.99,SW,218,0.0,3.0,45,0.04,,,1.64,0.0,meteohub,2013-01-14 23:02:00,
2013-01-14 18:07:00,51.6,52.2,30.00,SW,218,0.0,3.0,45,0.03,,,1.64,0.0,meteohub,2013-01-14 23:07:00,
2013-01-14 18:12:00,51.4,52.7,30.00,SW,218,0.0,3.0,46,0.03,,,1.64,0.0,meteohub,2013-01-14 23:12:00,
2013-01-14 18:17:00,51.4,52.2,30.00,SW,218,0.0,1.0,45,0.04,,,1.65,0.0,meteohub,2013-01-14 23:17:00,
2013-01-14 18:22:00,51.4,52.2,30.01,SW,218,0.0,1.0,45,0.04,,,1.65,0.0,meteohub,2013-01-14 23:22:00,
2013-01-14 18:27:00,51.4,52.2,30.01,SSW,200,1.0,1.0,45,0.04,,,1.65,0.0,meteohub,2013-01-14 23:27:00,
2013-01-14 18:32:00,51.6,52.2,30.01,South,171,0.0,2.0,45,0.04,,,1.65,0.0,meteohub,2013-01-14 23:32:00,
2013-01-14 18:37:00,51.6,51.4,30.01,West,263,0.0,4.0,44,0.03,,,1.65,0.0,meteohub,2013-01-14 23:37:00,
2013-01-14 18:42:00,51.4,52.0,30.01,WNW,288,2.0,4.0,45,0.04,,,1.66,0.0,meteohub,2013-01-14 23:42:00,
2013-01-14 18:47:00,51.4,51.8,30.02,NNW,331,1.0,4.0,45,0.04,,,1.66,0.0,meteohub,2013-01-14 23:47:00,
2013-01-14 18:52:00,51.3,51.8,30.02,North,0,3.0,3.0,45,0.04,,,1.67,0.0,meteohub,2013-01-14 23:52:00,
2013-01-14 18:57:00,51.4,51.8,30.02,North,5,3.0,3.0,45,0.04,,,1.68,0.0,meteohub,2013-01-14 23:57:00,
2013-01-14 19:07:00,51.1,51.8,30.03,WNW,293,1.0,6.0,45,0.05,,,1.69,0.0,meteohub,2013-01-15 00:07:00,
2013-01-14 19:12:00,50.5,51.8,30.03,North,350,2.0,6.0,45,0.05,,,1.69,0.0,meteohub,2013-01-15 00:12:00,
2013-01-14 19:17:00,49.8,52.0,30.04,North,351,2.0,6.0,45,0.05,,,1.70,0.0,meteohub,2013-01-15 00:17:00,
2013-01-14 19:22:00,49.3,52.0,30.04,NW,319,1.0,4.0,45,0.06,,,1.71,0.0,meteohub,2013-01-15 00:22:00,
2013-01-14 19:27:00,48.9,52.0,30.04,NNE,16,3.0,4.0,45,0.06,,,1.71,0.0,meteohub,2013-01-15 00:27:00,
2013-01-14 19:32:00,48.9,52.0,30.03,ENE,60,0.0,4.0,45,0.07,,,1.72,0.0,meteohub,2013-01-15 00:32:00,
2013-01-14 19:37:00,48.9,51.1,30.03,NNE,30,0.0,4.0,44,0.06,,,1.72,0.0,meteohub,2013-01-15 00:37:00,
2013-01-14 19:42:00,48.9,51.6,30.03,North,350,1.0,4.0,45,0.06,,,1.72,0.0,meteohub,2013-01-15 00:42:00,
2013-01-14 19:47:00,48.7,51.6,30.03,NNE,14,0.0,3.0,45,0.06,,,1.72,0.0,meteohub,2013-01-15 00:47:00,
2013-01-14 19:52:00,48.7,51.6,30.03,NNW,346,1.0,3.0,45,0.05,,,1.72,0.0,meteohub,2013-01-15 00:52:00,
2013-01-14 19:57:00,48.6,51.6,30.03,NNE,13,0.0,3.0,45,0.04,,,1.72,0.0,meteohub,2013-01-15 00:57:00,
2013-01-14 20:02:00,48.6,51.6,30.03,NNE,28,1.0,3.0,45,0.04,,,1.72,0.0,meteohub,2013-01-15 01:02:00,
2013-01-14 20:07:00,48.6,51.6,30.04,NE,34,0.0,3.0,45,0.03,,,1.72,0.0,meteohub,2013-01-15 01:07:00,
2013-01-14 20:12:00,48.6,51.6,30.03,ENE,74,0.0,3.0,45,0.03,,,1.72,0.0,meteohub,2013-01-15 01:12:00,
2013-01-14 20:17:00,48.4,51.6,30.05,NNW,348,0.0,3.0,45,0.02,,,1.72,0.0,meteohub,2013-01-15 01:17:00,
2013-01-14 20:22:00,48.2,51.8,30.05,NNW,346,1.0,2.0,45,0.01,,,1.72,0.0,meteohub,2013-01-15 01:22:00,
2013-01-14 20:27:00,48.0,51.8,30.05,North,355,3.0,5.0,45,0.02,,,1.74,0.0,meteohub,2013-01-15 01:27:00,
2013-01-14 20:32:00,47.7,51.8,30.05,ENE,68,0.0,5.0,45,0.02,,,1.74,0.0,meteohub,2013-01-15 01:32:00,
2013-01-14 20:37:00,47.5,51.8,30.06,South,170,0.0,5.0,45,0.04,,,1.76,0.0,meteohub,2013-01-15 01:37:00,
2013-01-14 20:42:00,47.1,51.8,30.06,South,170,0.0,5.0,45,0.04,,,1.76,0.0,meteohub,2013-01-15 01:42:00,
2013-01-14 20:47:00,47.1,51.8,30.07,WNW,303,2.0,2.0,45,0.06,,,1.78,0.0,meteohub,2013-01-15 01:47:00,
2013-01-14 20:52:00,46.8,51.8,30.07,NW,308,3.0,4.0,45,0.07,,,1.79,0.0,meteohub,2013-01-15 01:52:00,
2013-01-14 20:57:00,46.6,51.1,30.07,WNW,302,0.0,5.0,44,0.08,,,1.80,0.0,meteohub,2013-01-15 01:57:00,
2013-01-14 21:02:00,46.2,51.1,30.07,NW,305,1.0,5.0,44,0.11,,,1.83,0.0,meteohub,2013-01-15 02:02:00,
2013-01-14 21:07:00,45.9,51.1,30.08,West,273,0.0,5.0,44,0.12,,,1.84,0.0,meteohub,2013-01-15 02:07:00,
2013-01-14 21:12:00,45.9,51.1,30.08,West,273,1.0,3.0,44,0.12,,,1.84,0.0,meteohub,2013-01-15 02:12:00,
2013-01-14 21:17:00,45.5,50.9,30.08,West,271,2.0,4.0,44,0.12,,,1.84,0.0,meteohub,2013-01-15 02:17:00,
2013-01-14 21:22:00,45.1,50.9,30.08,West,279,0.0,4.0,44,0.12,,,1.84,0.0,meteohub,2013-01-15 02:22:00,
2013-01-14 21:27:00,45.0,50.9,30.08,WNW,286,2.0,4.0,44,0.11,,,1.85,0.0,meteohub,2013-01-15 02:27:00,
2013-01-14 21:32:00,44.8,50.9,30.08,NW,322,2.0,4.0,44,0.10,,,1.85,0.0,meteohub,2013-01-15 02:32:00,
2013-01-14 21:37:00,44.4,50.9,30.08,WNW,292,1.0,3.0,44,0.09,,,1.85,0.0,meteohub,2013-01-15 02:37:00,
2013-01-14 21:42:00,44.2,50.9,30.08,WNW,299,5.0,5.0,44,0.08,,,1.85,0.0,meteohub,2013-01-15 02:42:00,
2013-01-14 21:47:00,43.9,50.9,30.08,WNW,282,2.0,5.0,44,0.07,,,1.85,0.0,meteohub,2013-01-15 02:47:00,
2013-01-14 21:52:00,43.7,50.9,30.08,West,279,4.0,5.0,44,0.05,,,1.85,0.0,meteohub,2013-01-15 02:52:00,
2013-01-14 21:57:00,43.5,50.9,30.09,North,5,2.0,5.0,44,0.03,,,1.85,0.0,meteohub,2013-01-15 02:57:00,
2013-01-14 22:02:00,43.5,50.9,30.09,North,5,4.0,5.0,44,0.02,,,1.85,0.0,meteohub,2013-01-15 03:02:00,
2013-01-14 22:07:00,43.3,50.9,30.09,NW,323,0.0,5.0,44,0.01,,,1.85,0.0,meteohub,2013-01-15 03:07:00,
2013-01-14 22:12:00,43.3,50.9,30.09,NW,324,2.0,5.0,44,0.01,,,1.85,0.0,meteohub,2013-01-15 03:12:00,
2013-01-14 22:17:00,43.2,50.9,30.09,West,264,2.0,5.0,44,0.01,,,1.85,0.0,meteohub,2013-01-15 03:17:00,
2013-01-14 22:22:00,43.2,50.9,30.09,NNW,340,1.0,5.0,44,0.00,,,1.85,0.0,meteohub,2013-01-15 03:22:00,
2013-01-14 22:27:00,43.2,50.9,30.08,NNE,15,0.0,5.0,44,0.01,,,1.86,0.0,meteohub,2013-01-15 03:27:00,
2013-01-14 22:32:00,43.2,50.9,30.08,NW,319,3.0,4.0,44,0.01,,,1.86,0.0,meteohub,2013-01-15 03:32:00,
2013-01-14 22:37:00,43.2,50.9,30.08,WNW,302,0.0,4.0,44,0.01,,,1.86,0.0,meteohub,2013-01-15 03:37:00,
2013-01-14 22:42:00,43.2,50.9,30.08,NNW,327,1.0,4.0,44,0.01,,,1.86,0.0,meteohub,2013-01-15 03:42:00,
2013-01-14 22:47:00,43.2,50.9,30.08,North,355,1.0,4.0,44,0.01,,,1.86,0.0,meteohub,2013-01-15 03:47:00,
2013-01-14 22:52:00,43.2,50.9,30.07,NNW,332,0.0,4.0,44,0.01,,,1.86,0.0,meteohub,2013-01-15 03:52:00,
2013-01-14 22:57:00,43.2,50.9,30.07,NW,321,1.0,4.0,44,0.01,,,1.86,0.0,meteohub,2013-01-15 03:57:00,
2013-01-14 23:02:00,43.2,50.9,30.06,NW,321,1.0,3.0,44,0.01,,,1.86,0.0,meteohub,2013-01-15 04:02:00,
2013-01-14 23:07:00,43.2,50.4,30.06,NW,321,0.0,3.0,43,0.01,,,1.86,0.0,meteohub,2013-01-15 04:07:00,
2013-01-14 23:12:00,43.2,50.4,30.06,NW,321,0.0,2.0,43,0.01,,,1.86,0.0,meteohub,2013-01-15 04:12:00,
2013-01-14 23:17:00,43.2,50.4,30.06,NW,321,0.0,2.0,43,0.01,,,1.86,0.0,meteohub,2013-01-15 04:17:00,
2013-01-14 23:22:00,43.2,50.4,30.06,NW,321,0.0,2.0,43,0.00,,,1.86,0.0,meteohub,2013-01-15 04:22:00,
2013-01-14 23:27:00,43.2,50.4,30.06,North,355,0.0,2.0,43,0.00,,,1.86,0.0,meteohub,2013-01-15 04:27:00,
2013-01-14 23:32:00,43.2,50.4,30.06,NNW,332,1.0,3.0,43,0.00,,,1.86,0.0,meteohub,2013-01-15 04:32:00,
2013-01-14 23:37:00,43.2,50.4,30.07,NW,309,0.0,3.0,43,0.00,,,1.86,0.0,meteohub,2013-01-15 04:37:00,
2013-01-14 23:42:00,43.2,50.4,30.06,North,5,1.0,3.0,43,0.00,,,1.86,0.0,meteohub,2013-01-15 04:42:00,
2013-01-14 23:47:00,43.2,50.4,30.06,NW,312,0.0,3.0,43,0.01,,,1.87,0.0,meteohub,2013-01-15 04:47:00,
2013-01-14 23:52:00,43.2,50.4,30.04,NNW,339,0.0,3.0,43,0.01,,,1.87,0.0,meteohub,2013-01-15 04:52:00,
2013-01-14 23:57:00,43.2,50.4,30.04,NW,319,2.0,3.0,43,0.01,,,1.87,0.0,meteohub,2013-01-15 04:57:00,